DW7067 Weather Reports


Display with metric or nautical units.
time (UTC)temp
F
wind
direction
speed
MPH
gust
MPH
rain 1hr
in
rain 24hr
in
rain mn
in
humidity
%
barometer
mb
20190526183005 74 265 4.0 11.0 0.00 0.29 0.04 81 1016.3
20190526182005 74 257 3.0 12.0 0.00 0.29 0.04 80 1016.4
20190526181005 74 269 3.0 12.0 0.01 0.29 0.04 89 1016.6
20190526175006 72 246 1.0 8.0 0.04 0.29 0.04 92 1016.7
20190526174005 72 196 1.0 6.0 0.04 0.29 0.04 93 1016.6
20190526173005 70 0 0.0 4.0 0.04 0.29 0.04 93 1016.6
20190526172006 70 233 1.0 3.0 0.04 0.29 0.04 93 1016.7
20190526170007 71 200 2.0 7.0 0.01 0.26 0.01 87 1016.8
20190526162005 72 184 2.0 6.0 0.00 0.25 0.00 89 1016.7
20190526153005 69 265 2.0 9.0 0.00 0.25 0.00 92 1017.3
20190526151006 69 247 3.0 7.0 0.00 0.25 0.00 92 1017.6
20190526145005 69 193 0.0 5.0 0.00 0.25 0.00 93 1017.4
20190526144005 68 193 1.0 5.0 0.00 0.25 0.00 93 1017.5
20190526140005 68 196 1.0 4.0 0.00 0.25 0.00 93 1017.8
20190526125005 67 221 0.0 2.0 0.00 0.25 0.00 95 1018.1
20190526124006 67 221 1.0 4.0 0.00 0.25 0.00 95 1018.2
20190526122006 66 222 1.0 5.0 0.00 0.25 0.00 97 1018.0
20190526121005 65 234 1.0 6.0 0.00 0.25 0.00 100 1017.9
20190526120005 65 235 1.0 6.0 0.00 0.25 0.00 100 1017.8
20190526115005 64 246 1.0 4.0 0.00 0.25 0.00 99 1017.6
20190526114005 64 246 1.0 4.0 0.00 0.25 0.00 100 1017.6
20190526113005 64 242 1.0 7.0 0.00 0.25 0.00 99 1017.6
20190526111006 63 0 0.0 3.0 0.00 0.25 0.00 100 1017.6
20190526110005 63 0 0.0 1.0 0.00 0.25 0.00 100 1017.6
20190526105005 63 206 0.0 3.0 0.00 0.25 0.00 100 1017.5
20190526103006 63 0 0.0 2.0 0.00 0.25 0.00 100 1017.3
20190526102006 63 0 0.0 1.0 0.00 0.25 0.00 100 1017.2
20190526101006 63 0 0.0 3.0 0.00 0.25 0.00 100 1016.9
20190526093010 62 0 0.0 0.0 0.00 0.25 0.00 100 1016.9
20190526091005 62 0 0.0 1.0 0.00 0.25 0.00 100 1016.8
20190526085006 63 0 0.0 0.0 0.00 0.25 0.00 100 1016.6
20190526084006 63 0 0.0 0.0 0.00 0.25 0.00 100 1016.5
20190526083006 63 0 0.0 0.0 0.00 0.25 0.00 100 1016.7
20190526075004 63 205 0.0 3.0 0.00 0.25 0.00 100 1016.6
20190526074004 63 205 0.0 2.0 0.00 0.25 0.00 100 1016.8
20190526073006 63 205 1.0 5.0 0.00 0.25 0.00 100 1016.7
20190526071005 63 205 0.0 3.0 0.00 0.25 0.00 100 1016.6
20190526065005 63 205 0.0 1.0 0.00 0.25 0.00 100 1016.3
20190526062005 64 170 1.0 5.0 0.00 0.25 0.00 100 1016.4
20190526055005 64 182 1.0 4.0 0.00 0.25 0.00 100 1016.4
20190526054005 63 182 1.0 3.0 0.00 0.25 0.00 97 1016.5
20190526052005 63 0 0.0 2.0 0.00 0.25 0.00 97 1016.4
20190526051005 64 0 0.0 2.0 0.00 0.25 0.00 97 1016.4
20190526050025 63 0 0.0 2.0 0.00 0.25 0.00 97 1016.4
20190526043024 63 0 0.0 1.0 0.00 0.25 0.00 97 1016.5
20190526042024 63 0 0.0 1.0 0.00 0.25 0.00 96 1016.5
20190526041025 62 0 0.0 3.0 0.00 0.25 0.00 96 1016.5
20190526040026 62 0 0.0 0.0 0.00 0.25 0.00 95 1016.5
20190526035028 62 0 0.0 0.0 0.00 0.25 0.25 95 1016.5
20190526034030 62 0 0.0 0.0 0.00 0.25 0.25 95 1016.5
20190526033025 62 0 0.0 1.0 0.00 0.25 0.25 94 1016.8
20190526032024 62 0 0.0 0.0 0.00 0.25 0.25 93 1016.8
20190526031024 62 0 0.0 0.0 0.00 0.25 0.25 93 1016.8
20190526030024 63 0 0.0 0.0 0.00 0.25 0.25 93 1016.7
20190526025024 64 0 0.0 0.0 0.00 0.25 0.25 93 1016.6
20190526024024 64 0 0.0 0.0 0.00 0.25 0.25 93 1016.6
20190526022024 65 0 0.0 0.0 0.00 0.25 0.25 94 1016.5
20190526021025 65 0 0.0 0.0 0.00 0.25 0.25 93 1016.4
20190526014024 66 0 0.0 0.0 0.13 0.25 0.25 93 1016.3
20190526013024 66 0 0.0 0.0 0.14 0.25 0.25 92 1015.9
20190526012024 66 182 1.0 2.0 0.16 0.25 0.25 92 1015.8
20190526010024 68 234 1.0 9.0 0.19 0.21 0.21 90 1016.3
20190526004024 70 238 1.0 7.0 0.12 0.12 0.12 89 1016.0
20190526003024 71 178 2.0 6.0 0.11 0.11 0.11 88 1015.9
20190526000024 75 254 1.0 4.0 0.01 0.01 0.01 78 1014.5
20190525233024 78 206 1.0 7.0 0.00 0.00 0.00 68 1013.5
20190525232024 78 203 1.0 7.0 0.00 0.00 0.00 65 1013.6
20190525231024 79 164 3.0 8.0 0.00 0.00 0.00 65 1013.7
20190525230024 79 189 2.0 9.0 0.00 0.00 0.00 63 1013.4
20190525222025 80 196 3.0 12.0 0.00 0.00 0.00 63 1014.0
20190525221024 81 221 3.0 11.0 0.00 0.00 0.00 62 1014.0
20190525214024 82 178 4.0 12.0 0.00 0.00 0.00 60 1014.0
20190525213024 82 204 4.0 13.0 0.00 0.00 0.00 59 1014.2
20190525211024 83 242 4.0 18.0 0.00 0.00 0.00 59 1014.6
20190525210024 84 213 4.0 10.0 0.00 0.00 0.00 61 1014.6
20190525205023 84 232 3.0 18.0 0.00 0.00 0.00 59 1014.7
20190525201024 83 249 4.0 10.0 0.00 0.00 0.00 62 1015.0
20190525200024 83 247 2.0 10.0 0.00 0.00 0.00 62 1014.9
20190525193024 80 166 3.0 11.0 0.00 0.00 0.00 64 1015.6
20190525191025 81 170 5.0 17.0 0.00 0.00 0.00 62 1015.7
20190525190024 82 196 3.0 16.0 0.00 0.00 0.00 62 1015.7